CZ-6A DEB, 54952

Orbit data source: Space-Track

CZ-6A DEB, 54952 is space debris in SSO originally from a launch on Fri, 11 Nov 2022 UTC launched from the Taiyaun Space Center, China (TSC). Debris objects in space refer to the collection of defunct objects orbiting the Earth. Examples of debris include non-operational satellites, rocket bodies, and fragments generated from explosions, collisions, or faulty payload assembly.

Loading next visibility...
Identifier
54952, 2022-151SR
Orbit
SSO
Country
Flag of CNCN / PRC
Related business
Manufacturer
SAST
Mission
Spacecraft
Bus & Motor
Unknown
Mass
Unknown
Launch date (UTC)
2022-11-11 (4 years ago)
Launch vehicle
Unknown
Launch site
Taiyaun Space Center, China (TSC)
Object type
Payload
Rocket body
Debris
Shape & HBR
Unknown shape, 0.6 m
Radar Cross Section
Medium (>0.1 m² and <1 m²)

Expand to show TLE details & history
Last TLE update: 16 hours ago

TLE from 16 hours ago
0 CZ-6A DEB
1 54952U 22151SR  26206.39798795 -.00000150  00000-0 -73612-4 0  9990
2 54952  98.9501 184.0572 0113072 328.4036  31.0370 13.95790388188134
Epoch: 2026-07-25T09:33Z
TLE epoch observation values (Epoch: 2026-07-25T09:33:06.158Z)
Latitude
-0.00013°
Longitude
97.67072°
Altitude
840.926 km
Speed
7.468 km/s
True Right ascension
12h 16m 13s
True Declination
0° 00' 00"
Sunlit
Object was in daylight at epoch
Visualization orbit readout
Latitude
Unknown
Longitude
Unknown
Altitude
Unknown
Speed
Unknown
Apparent Right ascension
Unknown
Apparent Declination
Unknown
Sunlit
N/A
Visualization observer readout
Local Sidereal Time
15:10:17
Azimuth
Unknown
Elevation
Unknown
Doppler factor
Unknown
Orbital elements
Apogee altitude
987.97 km
Perigee altitude
823.252 km
Semi-major axis
7,283.748 km
Eccentricity
0.01131
Inclination
98.9501°
RAAN
184.0572°
Arg. of periapsis
328.4036°
True anomaly
31.71323°
Mean anomaly
31.037°
Eccentric anomaly
31.37429°
Mean motion
3.49149 °/min
Orbital period
103.11 mins
BSTAR
-0.000073612
Loading maneuver chart data...
Computing Atmospheric mass density...
Loading historical data...
Loading historical data...
Loading historical data...
Loading historical data...
Loading historical data...
Loading historical data...
Loading historical data...

Documentation

Showing up to 5 results
|